User: anonymous   Login
Location: Houston
(29.7631°N, 95.3631°W)
Time: 20:06:02
(UTC-06:00)
Language:

SO-50 - Orbit

View from above orbital plane
View from above orbital plane
View from above satellite
View from above satellite

Ground track
Ground track

The orbit data is extracted from the following two-line orbital elements,

1 27607U 02058C   19315.53206984 -.00000015  00000-0  18759-4 0  9994
2 27607  64.5549 323.7038 0072881 228.0582 131.4295 14.75587628908551
Epoch (UTC): 11 November 2019 12:46:10
Eccentricity: 0.0072881
inclination: 64.5549°
perigee height: 592 km
apogee height: 694 km
right ascension of ascending node: 323.7038°
argument of perigee: 228.0582°
revolutions per day: 14.75587628
mean anomaly at epoch: 131.4295°
orbit number at epoch: 90855

The dashed part of the orbit path shows where the satellite is in the earth's shadow,  

DLR